Find Starlink 33911

NORAD ID: 63777 Int'l Des: 2025-091 Owner: SPXS Country: US Constellation: starlink operational
LEOCIRCULAR

Live-Position

3D-Globus wird geladen...

Über Starlink 33911

Beschreibung wird geladen...

Nächste Überflüge

Passes for default location (London). Set your location on the main map for personalized predictions.

Höhenverlauf

Loading altitude history...

Zweizeiliger Elementsatz

1 63777U 25091C 26125.57095348 .00032079 00000-0 11700-2 0 9996
2 63777 42.9987 84.1372 0001062 27.8828 332.2081 15.27586608 57683
Epoch: 5. Mai 2026 • Age: 16 hours

Aktueller Status

Höhe 488.3 km
Geschwindigkeit 7.62 km/s
Subsatellitenpunkt -23.79°S, 109.78°E
Startdatum 2. Mai 2025
Alter 1 years
Typ internet

Technische Details

Klassifizierung Payload
Masse 575.00 kg
Trockenmasse 530.00 kg
Gesamtmasse 575.00 kg
Länge 0.30 m
Durchmesser 4.10 m
Spannweite 29.00 m
Form Box + pan
Hersteller SPXS
Bus-Typ Starlink V2MO
Phasenstatus In Orbit
Besitzer/Staat SPXS/US

Most Searched